Bradshaw AFB, HI

10:08 AM HST on November 15, 2019 (GMT -1000)
Bradshaw Army Air Field

Weather History for PHSF - September, 2019

Change the Weather History Date:

Wednesday, September 18, 2019

  Actual Average Record
Temperature  
Mean Temperature 60 °F -  
Max Temperature 73 °F 69 °F 75 °F (2003)
Min Temperature 46 °F 49 °F 44 °F (1998)
Degree Days  
Heating Degree Days 6    
Growing Degree Days 10 (Base 50)    
Moisture  
Dew Point 55 °F    
Average Humidity 80    
Maximum Humidity 94    
Minimum Humidity 49    
Precipitation  
Precipitation 0.00 in - - ()
Sea Level Pressure  
Sea Level Pressure 29.96 in    
Wind  
Wind Speed 6 mph (NW)    
Max Wind Speed 14 mph    
Max Gust Speed 17 mph    
Visibility 9 miles    
Events      
Averages and records for this station are not official NWS values.
T = Trace of Precipitation, MM = Missing Value Source: NWS Daily Summary

Daily Weather History Graph

Daily Weather History Graph

Search for Another Location

Airport or City:

Astronomy

Sep. 18, 2019 Rise Set
Actual Time 6:10 AM HST 6:22 PM HST
Civil Twilight 5:48 AM HST 6:44 PM HST
Nautical Twilight 5:22 AM HST 7:09 PM HST
Astronomical Twilight 4:56 AM HST 7:35 PM HST
Moon 9:36 PM HST (9/18) 9:53 AM HST (9/18)
Length of Visible Light 12h 55m
Length of Day
12h 11m
Waning Gibbous, 81% of the Moon is Illuminated
Sep 18
Waning Gibbous
Sep 21
Last Quarter
Sep 28
New
Oct 5
First Quarter
Oct 13
Full

Hourly Weather History & Observations

Time (HST) Temp. Dew Point Humidity Pressure Visibility Wind Dir Wind Speed Gust Speed Precip Events Conditions
12:58 AM 54.1 °F 42.3 °F 64% 29.88 in 10.0 mi South 9.2 mph - N/A   Clear
1:58 AM 52.0 °F 43.7 °F 73% 29.89 in 10.0 mi SSE 6.9 mph - N/A   Clear
2:58 AM 50.2 °F 46.9 °F 89% 29.89 in 10.0 mi Calm Calm - N/A   Clear
3:58 AM 47.1 °F 41.9 °F 82% 29.91 in 10.0 mi East 3.5 mph - N/A   Clear
4:58 AM 49.5 °F 46.2 °F 89% 29.91 in 10.0 mi SE 4.6 mph - N/A   Clear
5:58 AM 46.9 °F 41.7 °F 82% 29.95 in 10.0 mi Calm Calm - N/A   Clear
6:58 AM 51.8 °F 46.4 °F 82% 29.96 in 10.0 mi East 4.6 mph - N/A   Clear
7:58 AM 59.2 °F 49.1 °F 69% 29.96 in 10.0 mi Calm Calm - N/A   Clear
8:58 AM 66.6 °F 46.9 °F 49% 29.94 in 10.0 mi North 8.1 mph - N/A   Clear
9:58 AM 67.6 °F 54.5 °F 63% 29.95 in 10.0 mi North 9.2 mph - N/A   Clear
10:58 AM 70.2 °F 55.4 °F 59% 29.95 in 10.0 mi NNW 5.8 mph - N/A   Clear
11:58 AM 73.6 °F 56.8 °F 56% 29.92 in 10.0 mi WNW 10.4 mph - N/A   Clear
12:58 PM 73.4 °F 57.4 °F 57% 29.90 in 10.0 mi NNW 11.5 mph - N/A   Scattered Clouds
1:58 PM 72.1 °F 59.5 °F 64% 29.90 in 10.0 mi NW 10.4 mph 17.3 mph N/A   Partly Cloudy
2:58 PM 72.3 °F 59.7 °F 64% 29.91 in 10.0 mi NNW 11.5 mph - N/A   Partly Cloudy
3:58 PM 70.5 °F 60.1 °F 69% 29.93 in 10.0 mi NW 10.4 mph - N/A   Scattered Clouds
4:08 PM 69.8 °F 60.8 °F 73% 29.93 in 10.0 mi NNW 10.4 mph - N/A   Mostly Cloudy
4:33 PM 68.0 °F 59.0 °F 73% 29.93 in 10.0 mi NW 8.1 mph - N/A   Mostly Cloudy
4:58 PM 68.0 °F 60.8 °F 78% 29.94 in 10.0 mi NNW 13.8 mph - N/A   Overcast
5:28 PM 64.4 °F 59.0 °F 83% 29.98 in 10.0 mi NW 9.2 mph - N/A   Overcast
5:33 PM 64.4 °F 59.0 °F 83% 29.98 in 10.0 mi NW 9.2 mph - N/A   Overcast
5:43 PM 64.4 °F 59.0 °F 83% 29.98 in 10.0 mi NNW 8.1 mph - N/A   Overcast
5:58 PM 63.7 °F 59.4 °F 86% 29.98 in 10.0 mi North 5.8 mph - N/A   Overcast
6:28 PM 62.6 °F 59.0 °F 88% 29.99 in 10.0 mi Calm Calm - N/A   Overcast
6:38 PM 62.6 °F 59.0 °F 88% 29.98 in 10.0 mi Calm Calm - N/A   Overcast
6:48 PM 62.6 °F 59.0 °F 88% 29.98 in 10.0 mi NNW 4.6 mph - N/A   Mostly Cloudy
6:58 PM 62.8 °F 58.8 °F 87% 29.99 in 10.0 mi NNW 3.5 mph - N/A   Mostly Cloudy
7:08 PM 60.8 °F 59.0 °F 94% 29.99 in 2.8 mi NNW 4.6 mph - N/A   Mostly Cloudy
7:13 PM 60.8 °F 59.0 °F 94% 29.98 in 1.8 mi NNW 4.6 mph - N/A   Mostly Cloudy
7:18 PM 60.8 °F 59.0 °F 94% 29.98 in 0.9 mi Calm Calm - N/A   Overcast
7:23 PM 60.8 °F 59.0 °F 94% 29.98 in 0.8 mi NW 3.5 mph - N/A   Overcast
7:28 PM 60.8 °F 59.0 °F 94% 29.99 in 1.0 mi NW 3.5 mph - N/A   Overcast
7:33 PM 60.8 °F 59.0 °F 94% 29.99 in 1.2 mi Calm Calm - N/A   Overcast
7:48 PM 59.0 °F 57.2 °F 94% 30.00 in 4.0 mi WSW 3.5 mph - N/A   Overcast
7:53 PM 60.8 °F 57.2 °F 88% 29.99 in 10.0 mi WSW 3.5 mph - N/A   Overcast
7:58 PM 60.4 °F 57.0 °F 88% 29.99 in 10.0 mi Calm Calm - N/A   Overcast
8:13 PM 60.8 °F 57.2 °F 88% 29.99 in 10.0 mi Calm Calm - N/A   Overcast
8:58 PM 61.7 °F 56.5 °F 83% 29.98 in 10.0 mi Calm Calm - N/A   Overcast
9:53 PM 59.0 °F 55.4 °F 88% 29.98 in 10.0 mi South 4.6 mph - N/A   Scattered Clouds
9:58 PM 59.4 °F 54.7 °F 84% 29.98 in 10.0 mi South 3.5 mph - N/A   Scattered Clouds
10:58 PM 55.6 °F 52.3 °F 89% 29.98 in 10.0 mi SSE 5.8 mph - N/A   Clear
11:58 PM 55.0 °F 52.7 °F 92% 29.95 in 10.0 mi NNW 4.6 mph - N/A   Clear